Location: Endfield
(51.6667°N, 0.0667°W)
Time: 12:54:12
(UTC+00:00)

Cosmos 1680 Rocket - Pass Details

Date: 19 May 2024
Orbit: 758 x 778 km, 74.1° (Epoch: 16 June)

Event Time Altitude Azimuth Distance (km) Brightness Sun altitude
Rises 20:52:48 0° 195° (SSW) 3,244 6.4 -7.8°
Reaches altitude 10° 20:55:11 10° 193° (SSW) 2,319 5.7 -8.1°
Maximum altitude 21:00:25 69° 111° (ESE) 829 3.5 -8.6°
Drops below altitude 10° 21:05:40 10° 29° (NNE) 2,324 6.3 -9.2°
Sets 21:08:03 0° 27° (NNE) 3,252 7.1 -9.4°
